N8QF-1 Weather Reports


Display with metric or nautical units.
time (UTC)temp
F
wind
direction
speed
MPH
gust
MPH
rain 1hr
in
rain 24hr
in
rain mn
in
humidity
%
barometer
mb
20260504005543 60 194 4.0 8.0 0.00 0.00 0.00 40 1012.7
20260504005042 60 184 5.0 7.0 0.00 0.00 0.00 40 1012.8
20260504004542 60 187 3.0 6.0 0.00 0.00 0.00 40 1012.7
20260504004041 60 214 2.0 8.0 0.00 0.00 0.00 40 1012.7
20260504003541 60 172 4.0 8.0 0.00 0.00 0.00 40 1012.7
20260504003040 60 186 4.0 9.0 0.00 0.00 0.00 40 1012.5
20260504002539 60 210 6.0 9.0 0.00 0.00 0.00 40 1012.4
20260504002039 60 221 5.0 10.0 0.00 0.00 0.00 39 1012.7
20260504001538 60 165 3.0 10.0 0.00 0.00 0.00 39 1012.7
20260504000537 60 191 5.0 12.0 0.00 0.00 0.00 38 1012.6
20260504000037 60 159 6.0 11.0 0.00 0.00 0.00 38 1012.5
20260503235034 60 193 6.0 10.0 0.00 0.00 0.00 38 1012.5
20260503234533 60 184 7.0 11.0 0.00 0.00 0.00 37 1012.4
20260503234033 61 163 6.0 15.0 0.00 0.00 0.00 37 1012.3
20260503233532 61 177 5.0 11.0 0.00 0.00 0.00 37 1012.3
20260503232531 61 184 4.0 17.0 0.00 0.00 0.00 37 1012.5
20260503232031 61 207 10.0 11.0 0.00 0.00 0.00 36 1012.6
20260503231030 61 217 9.0 13.0 0.00 0.00 0.00 36 1012.9
20260503230529 61 208 7.0 11.0 0.00 0.00 0.00 36 1013.1
20260503230028 61 208 7.0 18.0 0.00 0.00 0.00 35 1013.2
20260503225528 61 242 7.0 18.0 0.00 0.00 0.00 35 1013.4
20260503225027 61 211 11.0 22.0 0.00 0.00 0.00 35 1013.4
20260503224527 61 228 6.0 18.0 0.00 0.00 0.00 35 1013.5
20260503224026 61 215 6.0 15.0 0.00 0.00 0.00 36 1013.6
20260503223526 61 210 5.0 16.0 0.00 0.00 0.00 34 1013.6
20260503223025 61 165 10.0 17.0 0.00 0.00 0.00 34 1013.7
20260503222525 61 214 7.0 14.0 0.00 0.00 0.00 34 1013.8
20260503222024 61 194 8.0 15.0 0.00 0.00 0.00 33 1014.1
20260503221524 61 212 9.0 15.0 0.00 0.00 0.00 34 1014.2
20260503221023 61 240 8.0 19.0 0.00 0.00 0.00 33 1014.3
20260503220523 61 187 8.0 15.0 0.00 0.00 0.00 34 1014.2
20260503220022 61 181 5.0 14.0 0.00 0.00 0.00 35 1014.1
20260503215522 61 203 9.0 12.0 0.00 0.00 0.00 34 1014.1
20260503214020 60 201 5.0 13.0 0.00 0.00 0.00 35 1014.2
20260503213519 60 212 6.0 10.0 0.00 0.00 0.00 34 1014.2
20260503213019 60 211 8.0 15.0 0.00 0.00 0.00 34 1014.3
20260503212518 60 207 5.0 12.0 0.00 0.00 0.00 35 1014.3
20260503212018 59 210 8.0 13.0 0.00 0.00 0.00 34 1014.5
20260503211518 59 162 6.0 10.0 0.00 0.00 0.00 34 1014.5
20260503211017 60 239 5.0 9.0 0.00 0.00 0.00 35 1014.7
20260503210516 59 250 7.0 13.0 0.00 0.00 0.00 35 1014.7
20260503210016 59 203 6.0 14.0 0.00 0.00 0.00 35 1014.7
20260503205515 59 253 9.0 10.0 0.00 0.00 0.00 34 1014.9
20260503205015 60 215 6.0 15.0 0.00 0.00 0.00 35 1015.4
20260503204514 60 238 5.0 16.0 0.00 0.00 0.00 34 1015.7
20260503204014 59 271 6.0 17.0 0.00 0.00 0.00 33 1015.6
20260503203513 60 264 9.0 15.0 0.00 0.00 0.00 34 1015.6
20260503202512 60 225 10.0 21.0 0.00 0.00 0.00 34 1015.4
20260503202011 59 224 10.0 16.0 0.00 0.00 0.00 33 1015.4
20260503201510 60 235 10.0 16.0 0.00 0.00 0.00 34 1015.5
20260503201010 60 225 10.0 18.0 0.00 0.00 0.00 35 1015.3
20260503200509 60 221 11.0 19.0 0.00 0.00 0.00 33 1015.3
20260503200009 60 218 9.0 18.0 0.00 0.00 0.00 33 1015.3
20260503195508 60 236 10.0 19.0 0.00 0.00 0.00 33 1015.3
20260503195008 60 212 12.0 22.0 0.00 0.00 0.00 33 1015.4
20260503194506 60 204 12.0 20.0 0.00 0.00 0.00 32 1015.4
20260503194005 61 225 10.0 19.0 0.00 0.00 0.00 32 1015.5
20260503193004 61 249 5.0 23.0 0.00 0.00 0.00 34 1015.9
20260503192503 61 222 11.0 20.0 0.00 0.00 0.00 32 1016.0
20260503191001 61 167 12.0 19.0 0.00 0.00 0.00 32 1016.1
20260503190501 61 242 8.0 23.0 0.00 0.00 0.00 34 1016.2
20260503185959 60 214 15.0 22.0 0.00 0.00 0.00 31 1016.3
20260503185459 61 249 11.0 21.0 0.00 0.00 0.00 34 1016.2
20260503184958 61 235 14.0 18.0 0.00 0.00 0.00 33 1016.4
20260503183957 61 208 9.0 20.0 0.00 0.00 0.00 33 1016.6
20260503183457 61 207 8.0 16.0 0.00 0.00 0.00 34 1016.7
20260503182956 61 259 8.0 17.0 0.00 0.00 0.00 32 1016.6
20260503182456 60 215 12.0 17.0 0.00 0.00 0.00 35 1016.8
20260503181955 59 249 12.0 21.0 0.00 0.00 0.00 33 1016.9
20260503181455 60 222 17.0 17.0 0.00 0.00 0.00 32 1016.9
20260503180454 61 238 7.0 16.0 0.00 0.00 0.00 35 1017.0
20260503175953 59 207 11.0 17.0 0.00 0.00 0.00 33 1017.2
20260503175453 59 197 11.0 21.0 0.00 0.00 0.00 34 1017.1
20260503174952 59 204 9.0 19.0 0.00 0.00 0.00 34 1017.1
20260503174452 60 235 8.0 23.0 0.00 0.00 0.00 34 1017.1
20260503173951 60 204 13.0 14.0 0.00 0.00 0.00 34 1017.1
20260503173450 60 224 5.0 19.0 0.00 0.00 0.00 36 1017.4
20260503172950 59 246 10.0 17.0 0.00 0.00 0.00 36 1017.4
20260503172449 58 231 10.0 20.0 0.00 0.00 0.00 36 1017.5
20260503171949 59 242 9.0 24.0 0.00 0.00 0.00 37 1017.7
20260503171448 58 225 11.0 21.0 0.00 0.00 0.00 36 1017.7
20260503170948 58 208 13.0 18.0 0.00 0.00 0.00 36 1017.9
20260503170447 58 228 8.0 15.0 0.00 0.00 0.00 35 1017.8
20260503150935 52 212 11.0 13.0 0.00 0.00 0.00 49 1019.4
20260503150435 53 252 10.0 17.0 0.00 0.00 0.00 50 1019.4
20260503130922 45 242 8.0 10.0 0.00 0.00 0.00 62 1019.5
20260503130421 45 256 5.0 14.0 0.00 0.00 0.00 64 1019.6
20260503110404 35 347 0.0 0.0 0.00 0.00 0.00 94 1019.1
20260503090347 36 347 0.0 0.0 0.00 0.00 0.00 94 1018.3
20260503081342 36 347 0.0 0.0 0.00 0.00 0.00 94 1018.2
20260503080840 36 347 0.0 0.0 0.00 0.00 0.00 94 1018.2
20260503080340 36 347 0.0 0.0 0.00 0.00 0.00 93 1018.2
20260503072836 36 347 0.0 0.0 0.00 0.00 0.00 92 1018.2
20260503072335 37 347 0.0 0.0 0.00 0.00 0.00 92 1018.2
20260503071835 37 347 0.0 0.0 0.00 0.00 0.00 92 1018.3
20260503071334 37 347 0.0 0.0 0.00 0.00 0.00 92 1018.2
20260503070834 37 347 0.0 0.0 0.00 0.00 0.00 92 1018.3
20260503070333 37 347 0.0 0.0 0.00 0.00 0.00 92 1018.2
20260503060323 38 347 0.0 0.0 0.00 0.00 0.00 90 1018.6
20260503054821 38 347 0.0 0.0 0.00 0.00 0.00 87 1018.7
20260503054321 38 347 0.0 0.0 0.00 0.00 0.00 87 1018.7
20260503053820 38 347 0.0 0.0 0.00 0.00 0.00 88 1018.7
20260503053320 38 347 0.0 0.0 0.00 0.00 0.00 86 1018.8
20260503052819 38 347 0.0 0.0 0.00 0.00 0.00 86 1018.8
20260503052319 38 347 0.0 0.0 0.00 0.00 0.00 86 1018.7
20260503051818 38 347 0.0 0.0 0.00 0.00 0.00 86 1018.7
20260503051318 38 347 0.0 0.0 0.00 0.00 0.00 86 1018.7
20260503050817 38 347 0.0 0.0 0.00 0.00 0.00 86 1018.7
20260503050317 38 347 0.0 0.0 0.00 0.00 0.00 84 1018.8
20260503045816 38 347 0.0 0.0 0.00 0.00 0.00 84 1018.7
20260503045316 38 347 0.0 0.0 0.00 0.02 0.00 85 1018.7
20260503044815 38 347 0.0 0.0 0.00 0.02 0.00 83 1018.7
20260503044315 38 347 0.0 0.0 0.00 0.02 0.00 83 1018.7
20260503043814 38 347 0.0 0.0 0.00 0.02 0.00 83 1018.7
20260503043314 39 347 0.0 0.0 0.00 0.02 0.00 83 1018.7
20260503042813 39 347 0.0 0.0 0.00 0.02 0.00 82 1018.7
20260503042312 39 347 0.0 0.0 0.00 0.02 0.00 82 1018.8
20260503041311 39 347 0.0 0.0 0.00 0.02 0.00 80 1018.7
20260503040811 39 347 0.0 0.0 0.00 0.02 0.00 78 1018.7
20260503040310 39 347 0.0 0.0 0.00 0.02 0.00 78 1018.8
20260503035810 40 347 0.0 0.0 0.00 0.02 0.00 78 1018.7
20260503035309 40 347 0.0 0.0 0.00 0.02 0.00 77 1018.7
20260503034809 40 347 0.0 0.0 0.00 0.02 0.00 76 1018.7
20260503034308 40 347 0.0 0.0 0.00 0.02 0.00 76 1018.7
20260503033808 40 347 0.0 0.0 0.00 0.02 0.00 74 1018.6
20260503033307 40 347 0.0 0.0 0.00 0.02 0.00 74 1018.6
20260503032808 40 347 0.0 0.0 0.00 0.02 0.00 74 1018.6
20260503032306 40 347 0.0 0.0 0.00 0.02 0.00 73 1018.7
20260503031805 40 347 0.0 0.0 0.00 0.02 0.00 73 1018.6
20260503030804 41 347 0.0 0.0 0.00 0.02 0.00 74 1018.6
20260503030303 41 347 0.0 0.0 0.00 0.02 0.00 74 1018.7
20260503025803 41 347 0.0 0.0 0.00 0.02 0.00 74 1018.7
20260503025304 41 347 0.0 0.0 0.00 0.02 0.00 74 1018.7
20260503024802 41 347 0.0 0.0 0.00 0.02 0.00 73 1018.6
20260503024301 41 347 0.0 0.0 0.00 0.02 0.00 73 1018.7
20260503023801 42 347 0.0 0.0 0.00 0.02 0.00 72 1018.8
20260503023300 42 347 0.0 0.0 0.00 0.02 0.00 72 1018.7
20260503022759 42 347 0.0 0.0 0.00 0.02 0.00 72 1018.7
20260503022259 42 347 0.0 0.0 0.00 0.02 0.00 72 1018.7
20260503021758 42 347 0.0 0.0 0.00 0.02 0.00 72 1018.7
20260503021258 42 347 0.0 0.0 0.00 0.02 0.00 71 1018.7
20260503020757 43 347 0.0 0.0 0.00 0.02 0.00 70 1018.7
20260503020257 43 347 0.0 0.0 0.00 0.02 0.00 70 1018.6
20260503015755 43 347 0.0 0.0 0.00 0.02 0.00 69 1018.6
20260503015255 43 347 0.0 0.0 0.00 0.02 0.00 68 1018.4
20260503014754 44 347 0.0 0.0 0.00 0.02 0.00 68 1018.4
20260503014254 44 347 0.0 0.0 0.00 0.02 0.00 67 1018.4
20260503013753 44 347 0.0 0.0 0.00 0.02 0.00 65 1018.4
20260503013253 45 347 0.0 0.0 0.00 0.02 0.00 64 1018.3
20260503012752 45 347 0.0 0.0 0.00 0.02 0.00 63 1018.3
20260503012252 45 347 0.0 0.0 0.00 0.02 0.00 61 1018.3
20260503011751 46 347 0.0 0.0 0.00 0.02 0.00 59 1018.2
20260503011251 46 347 0.0 0.0 0.00 0.02 0.00 58 1018.1
20260503010749 47 347 0.0 0.0 0.00 0.02 0.00 57 1018.1